Location: Unspecified
(0.0000°N, 0.0000°E)
Time: 07:31:16
(UTC+00:00)

Tiangong 1 - Pass Details

Date: 30 April 2017
Orbit: 329 x 352 km, 42.8° (Epoch: 27 April)

Event Time Altitude Azimuth Distance (km) Brightness Sun altitude
Rises 18:29:11 0° 240° (WSW) 2,125 5.6 -7.7°
Reaches altitude 10° 18:31:22 10° 253° (WSW) 1,279 4.7 -8.3°
Maximum altitude 18:33:53 28° 315° (NW) 672 3.1 -8.9°
Drops below altitude 10° 18:36:28 10° 17° (NNE) 1,287 3.7 -9.5°
Sets 18:38:32 0° 29° (NNE) 2,093 4.6 -10.0°
